TimeEST,TemperatureF,Dew PointF,Humidity,Sea Level PressureIn,VisibilityMPH,Wind Direction,Wind SpeedMPH,Gust SpeedMPH,PrecipitationIn,Events,Conditions,WindDirDegrees,DateUTC
12:55 AM,38.1,35.1,89,30.12,10.0,Calm,Calm,-,N/A,,Clear,0,2013-01-21 05:55:00
1:55 AM,37.9,34.5,87,30.11,10.0,West,3.5,-,N/A,,Clear,280,2013-01-21 06:55:00
2:55 AM,36.5,34.9,94,30.11,10.0,Calm,Calm,-,N/A,,Clear,0,2013-01-21 07:55:00
3:55 AM,35.6,33.4,92,30.10,10.0,Calm,Calm,-,N/A,,Clear,0,2013-01-21 08:55:00
4:55 AM,33.6,32.5,96,30.10,10.0,Calm,Calm,-,N/A,,Clear,0,2013-01-21 09:55:00
5:55 AM,32.7,30.0,90,30.11,10.0,West,4.6,-,N/A,,Clear,270,2013-01-21 10:55:00
6:55 AM,33.3,30.4,89,30.11,10.0,West,4.6,-,N/A,,Partly Cloudy,270,2013-01-21 11:55:00
7:55 AM,33.3,30.6,90,30.13,10.0,West,3.5,-,N/A,,Partly Cloudy,270,2013-01-21 12:55:00
8:55 AM,39.0,34.9,85,30.14,10.0,West,6.9,-,N/A,,Partly Cloudy,270,2013-01-21 13:55:00
9:55 AM,48.0,32.7,55,30.14,10.0,NW,4.6,-,N/A,,Mostly Cloudy,310,2013-01-21 14:55:00
10:55 AM,51.8,32.4,48,30.15,10.0,West,10.4,-,N/A,,Mostly Cloudy,280,2013-01-21 15:55:00
11:55 AM,53.8,30.2,41,30.15,10.0,West,15.0,23.0,N/A,,Mostly Cloudy,280,2013-01-21 16:55:00
12:55 PM,53.8,31.5,43,30.13,10.0,WNW,11.5,-,N/A,,Mostly Cloudy,290,2013-01-21 17:55:00
1:55 PM,54.9,30.7,40,30.11,10.0,WNW,11.5,19.6,N/A,,Mostly Cloudy,300,2013-01-21 18:55:00
2:55 PM,54.7,30.9,40,30.11,10.0,NW,9.2,18.4,N/A,,Mostly Cloudy,320,2013-01-21 19:55:00
3:55 PM,55.0,30.0,38,30.12,10.0,WNW,16.1,-,N/A,,Mostly Cloudy,290,2013-01-21 20:55:00
4:55 PM,53.2,28.4,38,30.12,10.0,WNW,9.2,-,N/A,,Mostly Cloudy,300,2013-01-21 21:55:00
5:55 PM,48.4,27.7,45,30.14,10.0,WNW,8.1,-,N/A,,Mostly Cloudy,290,2013-01-21 22:55:00
6:55 PM,46.6,23.7,41,30.16,10.0,WNW,13.8,-,N/A,,Mostly Cloudy,290,2013-01-21 23:55:00
7:55 PM,44.4,21.7,41,30.17,10.0,NW,8.1,-,N/A,,Mostly Cloudy,310,2013-01-22 00:55:00
8:55 PM,42.6,18.3,38,30.18,10.0,NW,9.2,19.6,N/A,,Scattered Clouds,310,2013-01-22 01:55:00
9:55 PM,41.0,16.2,37,30.18,10.0,NW,8.1,-,N/A,,Scattered Clouds,310,2013-01-22 02:55:00
10:55 PM,39.2,16.3,40,30.19,10.0,WNW,8.1,-,N/A,,Scattered Clouds,300,2013-01-22 03:55:00
11:55 PM,37.2,17.1,44,30.18,10.0,WNW,10.4,-,N/A,,Clear,300,2013-01-22 04:55:00